Date String (YYYY-MM-DD hh:mm:ss) UTC,Instrument flags,absolute air pressure of the measurement (hPa),sample flow rate (lpm),inlet stack bypass flow (lpm),air temperature of the measurement (°C),ambient temperature measured by the external sensor (°C),aerosol sample conditioner tube jacket temperature (°C),OPC LED temperature (°C),internal box temperature (°C),relative humidity of the measurement (%),span deviation,mass concentration of particles derived from Lorenz-Mie calculation of OPC scattering (μg/m³),mass concentration of particles derived from Lorenz-Mie calculation of OPC scattering (μg/m³),mass concentration of particles derived from Lorenz-Mie calculation of OPC scattering (μg/m³)
DateTimeUTC,F1_M11,P_M11,Q1_M11,Q2_M11,T1_M11,T2_M11,T3_M11,T4_M11,T5_M11,U1_M11,ZSPAN_M11,X0_M11,X2_M11,X1_M11
2024-03-04 13:00:00,SystemResetWarning,0822.7,5.00,000.00,018.3,017.5,000.0,027.0,020.0,14.5,0000.0,0007.31,0001.43,0000.55
2024-03-04 13:01:00,SystemResetWarning,0822.7,5.01,000.00,018.3,017.5,000.0,027.0,020.0,14.5,0000.0,0007.23,0001.38,0000.55
2024-03-04 13:02:00,SystemResetWarning,0822.7,5.01,000.00,018.2,017.4,000.0,027.0,020.0,14.5,0000.0,0007.38,0001.31,0000.55
2024-03-04 13:03:00,SystemResetWarning,0822.7,5.01,000.00,018.3,017.6,000.0,027.0,020.2,14.6,0000.0,0007.73,0001.25,0000.54
2024-03-04 13:04:00,SystemResetWarning,0823.2,5.00,000.00,018.4,018.4,000.0,027.1,020.6,14.6,0000.0,0008.03,0001.21,0000.54
2024-03-04 13:05:00,SystemResetWarning,0823.0,5.00,000.00,018.6,018.9,000.0,027.1,020.9,14.4,0000.0,0007.55,0001.13,0000.54
2024-03-04 13:06:00,SystemResetWarning,0823.0,4.99,000.00,018.7,018.8,000.0,027.1,020.7,14.2,0000.0,0007.52,0001.10,0000.54
2024-03-04 13:07:00,SystemResetWarning,0822.8,4.99,000.00,018.7,018.6,000.0,027.1,020.6,14.2,0000.0,0007.56,0001.11,0000.54
2024-03-04 13:08:00,SystemResetWarning,0822.9,4.99,000.00,018.7,018.5,000.0,027.0,020.5,14.1,0000.0,0007.52,0001.08,0000.54
2024-03-04 13:09:00,SystemResetWarning,0822.9,5.01,000.00,018.7,018.4,000.0,027.0,020.5,14.1,0000.0,0007.48,0001.07,0000.53
2024-03-04 13:10:00,SystemResetWarning,0823.0,5.01,000.00,018.6,018.2,000.0,027.0,020.4,14.1,0000.0,0006.25,0001.03,0000.53
2024-03-04 13:11:00,SystemResetWarning,0822.9,5.01,000.00,018.6,018.1,000.0,027.0,020.3,14.1,0000.0,0004.76,0000.96,0000.52
2024-03-04 13:12:00,SystemResetWarning,0822.8,5.00,000.00,018.6,018.1,000.0,027.0,020.3,14.2,0000.0,0004.39,0000.95,0000.52
2024-03-04 13:13:00,SystemResetWarning,0823.0,5.00,000.00,018.5,018.0,000.0,027.0,020.2,14.2,0000.0,0005.01,0000.98,0000.52
2024-03-04 13:14:00,SystemResetWarning,0823.2,5.00,000.00,018.5,017.9,000.0,027.0,020.2,14.1,0000.0,0004.59,0001.02,0000.52
2024-03-04 13:15:00,SystemResetWarning,0823.1,5.00,000.00,018.4,017.9,000.0,027.0,020.1,14.1,0000.0,0003.89,0001.12,0000.53
2024-03-04 13:16:00,SystemResetWarning,0823.0,4.99,000.00,018.4,017.8,000.0,027.0,020.1,14.2,0000.0,0005.23,0001.14,0000.54
2024-03-04 13:17:00,SystemResetWarning,0822.9,4.99,000.00,018.4,017.8,000.0,027.0,020.1,14.3,0000.0,0005.27,0001.17,0000.55
2024-03-04 13:18:00,SystemResetWarning,0822.8,5.00,000.00,018.3,017.7,000.0,027.0,020.0,14.3,0000.0,0005.48,0001.19,0000.56
2024-03-04 13:19:00,SystemResetWarning,0823.0,5.01,000.00,018.3,017.7,000.0,027.0,020.0,14.3,0000.0,0005.67,0001.21,0000.58
2024-03-04 13:20:00,SystemResetWarning,0823.0,5.00,000.00,018.3,017.6,000.0,027.0,020.0,14.3,0000.0,0005.85,0001.26,0000.59
2024-03-04 13:21:00,SystemResetWarning,0823.1,5.00,000.00,018.3,017.6,000.0,027.0,020.0,14.3,0000.0,0006.53,0001.31,0000.59
2024-03-04 13:22:00,SystemResetWarning,0822.9,5.00,000.00,018.3,017.6,000.0,027.0,020.0,14.3,0000.0,0008.20,0001.37,0000.60
2024-03-04 13:23:00,SystemResetWarning,0823.0,5.00,000.00,018.3,017.5,000.0,027.0,020.0,14.3,0000.0,0008.84,0001.37,0000.61
2024-03-04 13:24:00,SystemResetWarning,0822.9,5.00,000.00,018.2,017.4,000.0,027.0,020.0,14.3,0000.0,0008.27,0001.32,0000.60
2024-03-04 13:25:00,SystemResetWarning,0823.0,5.00,000.00,018.3,017.7,000.0,027.0,020.2,14.4,0000.0,0008.11,0001.30,0000.60
2024-03-04 13:26:00,SystemResetWarning,0823.0,5.00,000.00,018.5,018.5,000.0,027.1,020.7,14.3,0000.0,0007.93,0001.23,0000.60
2024-03-04 13:27:00,SystemResetWarning,0823.0,5.00,000.00,018.7,018.9,000.0,027.1,020.9,14.2,0000.0,0007.24,0001.28,0000.60
2024-03-04 13:28:00,SystemResetWarning,0823.0,4.99,000.00,018.7,018.8,000.0,027.1,020.8,14.1,0000.0,0007.86,0001.31,0000.60
2024-03-04 13:29:00,SystemResetWarning,0823.0,4.99,000.00,018.7,018.6,000.0,027.1,020.6,14.1,0000.0,0008.12,0001.27,0000.59
2024-03-04 13:30:00,SystemResetWarning,0823.1,5.00,000.00,018.7,018.5,000.0,027.1,020.6,14.0,0000.0,0008.37,0001.23,0000.58
2024-03-04 13:31:00,SystemResetWarning,0822.9,5.01,000.00,018.7,018.4,000.0,027.1,020.5,14.0,0000.0,0008.51,0001.22,0000.56
2024-03-04 13:32:00,SystemResetWarning,0822.9,5.01,000.00,018.6,018.3,000.0,027.0,020.4,14.1,0000.0,0008.97,0001.20,0000.56
2024-03-04 13:33:00,SystemResetWarning,0823.0,4.99,000.00,018.6,018.2,000.0,027.0,020.4,14.1,0000.0,0008.06,0001.23,0000.56
2024-03-04 13:34:00,SystemResetWarning,0823.0,4.99,000.00,018.6,018.1,000.0,027.0,020.3,14.0,0000.0,0007.08,0001.32,0000.56
2024-03-04 13:35:00,SystemResetWarning,0823.1,5.01,000.00,018.6,018.0,000.0,027.0,020.3,14.0,0000.0,0007.65,0001.35,0000.56
2024-03-04 13:36:00,SystemResetWarning,0823.1,5.00,000.00,018.5,017.9,000.0,027.0,020.2,14.1,0000.0,0007.84,0001.37,0000.56
2024-03-04 13:37:00,SystemResetWarning,0823.1,5.00,000.00,018.5,017.8,000.0,027.0,020.2,14.4,0000.0,0007.86,0001.36,0000.56
2024-03-04 13:38:00,SystemResetWarning,0823.1,5.00,000.00,018.4,017.8,000.0,027.0,020.1,14.6,0000.0,0007.86,0001.35,0000.56
2024-03-04 13:39:00,SystemResetWarning,0823.1,5.00,000.00,018.4,017.7,000.0,027.0,020.1,14.8,0000.0,0007.38,0001.31,0000.55
2024-03-04 13:40:00,SystemResetWarning,0823.2,5.00,000.00,018.4,017.7,000.0,027.0,020.1,14.8,0000.0,0006.68,0001.28,0000.55
2024-03-04 13:41:00,SystemResetWarning,0823.3,5.00,000.00,018.4,017.7,000.0,027.0,020.0,14.8,0000.0,0005.78,0001.32,0000.55
2024-03-04 13:42:00,SystemResetWarning,0823.3,5.00,000.00,018.3,017.6,000.0,026.9,020.0,14.8,0000.0,0005.30,0001.31,0000.56
2024-03-04 13:43:00,SystemResetWarning,0823.3,5.00,000.00,018.3,017.6,000.0,026.9,020.0,14.8,0000.0,0004.44,0001.29,0000.56
2024-03-04 13:44:00,SystemResetWarning,0823.3,5.00,000.00,018.3,017.6,000.0,026.9,020.0,14.9,0000.0,0005.13,0001.27,0000.56
2024-03-04 13:45:00,SystemResetWarning,0823.3,5.00,000.00,018.3,017.5,000.0,026.9,020.0,14.9,0000.0,0005.31,0001.21,0000.55
2024-03-04 13:46:00,SystemResetWarning,0823.3,5.01,000.00,018.3,018.0,000.0,027.1,020.3,14.9,0000.0,0004.30,0001.16,0000.54
2024-03-04 13:47:00,SystemResetWarning,0823.3,5.01,000.00,018.5,018.8,000.0,027.1,020.8,14.8,0000.0,0003.90,0001.11,0000.53
2024-03-04 13:48:00,SystemResetWarning,0823.3,4.98,000.00,018.7,018.9,000.0,027.1,020.9,14.6,0000.0,0003.93,0001.12,0000.53
2024-03-04 13:49:00,SystemResetWarning,0823.3,4.99,000.00,018.7,018.8,000.0,027.1,020.8,14.6,0000.0,0004.42,0001.12,0000.53
2024-03-04 13:50:00,SystemResetWarning,0823.4,5.01,000.00,018.7,018.7,000.0,027.1,020.6,14.6,0000.0,0004.22,0001.13,0000.53
2024-03-04 13:51:00,SystemResetWarning,0823.3,5.01,000.00,018.7,018.5,000.0,027.1,020.5,14.6,0000.0,0004.38,0001.15,0000.54
2024-03-04 13:52:00,SystemResetWarning,0823.3,5.00,000.00,018.7,018.4,000.0,027.0,020.5,14.6,0000.0,0004.36,0001.13,0000.55
2024-03-04 13:53:00,SystemResetWarning,0823.3,4.99,000.00,018.7,018.2,000.0,027.1,020.4,14.7,0000.0,0004.44,0001.14,0000.57
2024-03-04 13:54:00,SystemResetWarning,0823.3,4.99,000.00,018.6,018.2,000.0,027.0,020.4,14.6,0000.0,0004.43,0001.14,0000.59
2024-03-04 13:55:00,SystemResetWarning,0823.4,5.01,000.00,018.6,018.1,000.0,027.0,020.3,14.6,0000.0,0004.63,0001.16,0000.61
2024-03-04 13:56:00,SystemResetWarning,0823.5,5.01,000.00,018.5,018.0,000.0,027.0,020.2,14.6,0000.0,0004.71,0001.14,0000.62
2024-03-04 13:57:00,SystemResetWarning,0823.4,4.99,000.00,018.5,017.9,000.0,027.0,020.2,14.6,0000.0,0005.92,0001.23,0000.65
2024-03-04 13:58:00,SystemResetWarning,0823.4,4.99,000.00,018.5,017.8,000.0,027.0,020.2,14.4,0000.0,0006.98,0001.33,0000.67
2024-03-04 13:59:00,SystemResetWarning,0823.4,5.00,000.00,018.4,017.8,000.0,027.0,020.1,14.4,0000.0,0007.12,0001.35,0000.70
